Back to catalog

FENGYUN 1C DEB

AliveSSO
NORAD 32155·DEBRIS·🇨🇳 China

Launched May 10, 1999 from Taiyuan Satellite Launch Center

Loading…

Next Passes (next 24 hours)

TLE

FreshSource: Space-Track

Epoch: Sep 12, 2026, 13:42 UTC

1 32155U 99025CSZ 26255.57151978  .00000601  00000-0  22762-3 0  9993
2 32155  98.9713 199.7791 0069431 158.9216 201.4854 14.33598511741458

Track FENGYUN 1C DEB in real time with AllMySat

Download on the App Store